Location: Gilevgi
(36.8751°N, 30.0581°E)
Time: 21:51:20
(UTC+00:00)

Cosmos 990 Rocket - Pass Details

Date: 11 December 2025
Orbit: 742 x 764 km, 74.0° (Epoch: 12 January)

Event Time Altitude Azimuth Distance (km) Brightness Sun altitude
Rises 15:24:25 0° 197° (SSW) 3,163 7.8 -8.2°
Reaches altitude 10° 15:26:45 10° 197° (SSW) 2,245 7.0 -8.6°
Maximum altitude 15:31:51 88° 286° (WNW) 749 4.0 -9.6°
Drops below altitude 10° 15:37:00 10° 18° (NNE) 2,269 6.1 -10.5°
Enters shadow 15:39:19 - 18° (NNE) 3,178 6.8 -11.0°
